Year,Month,Day,Hour,Minute,Value (Times are PST for temperature in C)
2013,07,15,00,00,17.70
2013,07,15,00,01,17.70
2013,07,15,00,02,17.60
2013,07,15,00,03,17.60
2013,07,15,00,04,17.50
2013,07,15,00,05,17.50
2013,07,15,00,06,17.40
2013,07,15,00,07,17.40
2013,07,15,00,08,17.40
2013,07,15,00,09,17.30
2013,07,15,00,10,17.30
2013,07,15,00,11,17.30
2013,07,15,00,12,17.30
2013,07,15,00,13,17.20
2013,07,15,00,14,17.20
2013,07,15,00,15,17.10
2013,07,15,00,16,17.10
2013,07,15,00,17,17.00
2013,07,15,00,18,16.90
2013,07,15,00,19,16.90
2013,07,15,00,20,16.80
2013,07,15,00,21,16.80
2013,07,15,00,22,16.70
2013,07,15,00,23,16.70
2013,07,15,00,24,16.60
2013,07,15,00,25,16.60
2013,07,15,00,26,16.60
2013,07,15,00,27,16.50
2013,07,15,00,28,16.50
2013,07,15,00,29,16.50
2013,07,15,00,30,16.50
2013,07,15,00,31,16.50
2013,07,15,00,32,16.50
2013,07,15,00,33,16.50
2013,07,15,00,34,16.50
2013,07,15,00,35,16.50
2013,07,15,00,36,16.50
2013,07,15,00,37,16.40
2013,07,15,00,38,16.50
2013,07,15,00,39,16.50
2013,07,15,00,40,16.60
2013,07,15,00,41,16.60
2013,07,15,00,42,16.60
2013,07,15,00,43,16.60
2013,07,15,00,44,16.60
2013,07,15,00,45,16.70
2013,07,15,00,46,16.70
2013,07,15,00,47,16.70
2013,07,15,00,48,16.70
2013,07,15,00,49,16.70
2013,07,15,00,50,16.70
2013,07,15,00,51,16.70
2013,07,15,00,52,16.70
2013,07,15,00,53,16.80
2013,07,15,00,54,16.80
2013,07,15,00,55,16.80
2013,07,15,00,56,16.80
2013,07,15,00,57,16.80
2013,07,15,00,58,16.80
2013,07,15,00,59,16.80
2013,07,15,01,00,16.80
2013,07,15,01,01,16.90
2013,07,15,01,02,16.90
2013,07,15,01,03,16.90
2013,07,15,01,04,16.80
2013,07,15,01,05,16.80
2013,07,15,01,06,16.80
2013,07,15,01,07,16.80
2013,07,15,01,08,16.80
2013,07,15,01,09,16.80
2013,07,15,01,10,16.70
2013,07,15,01,11,16.70
2013,07,15,01,12,16.70
2013,07,15,01,13,16.70
2013,07,15,01,14,16.70
2013,07,15,01,15,16.70
2013,07,15,01,16,16.70
2013,07,15,01,17,16.70
2013,07,15,01,18,16.70
2013,07,15,01,19,16.70
2013,07,15,01,20,16.70
2013,07,15,01,21,16.70
2013,07,15,01,22,16.80
2013,07,15,01,23,16.80
2013,07,15,01,24,16.80
2013,07,15,01,25,16.80
2013,07,15,01,26,16.90
2013,07,15,01,27,16.90
2013,07,15,01,28,16.90
2013,07,15,01,29,16.90
2013,07,15,01,30,17.00
2013,07,15,01,31,17.00
2013,07,15,01,32,17.00
2013,07,15,01,33,17.00
2013,07,15,01,34,17.00
2013,07,15,01,35,17.00
2013,07,15,01,36,17.00
2013,07,15,01,37,17.00
2013,07,15,01,38,17.00
2013,07,15,01,39,17.00
2013,07,15,01,40,17.00
2013,07,15,01,41,17.00
2013,07,15,01,42,17.00
2013,07,15,01,43,17.00
2013,07,15,01,44,17.00
2013,07,15,01,45,17.00
2013,07,15,01,46,16.90
2013,07,15,01,47,16.90
2013,07,15,01,48,16.90
2013,07,15,01,49,16.90
2013,07,15,01,50,16.90
2013,07,15,01,51,16.90
2013,07,15,01,52,16.90
2013,07,15,01,53,16.90
2013,07,15,01,54,16.90
2013,07,15,01,55,16.90
2013,07,15,01,56,16.90
2013,07,15,01,57,16.90
2013,07,15,01,58,16.90
2013,07,15,01,59,16.90
2013,07,15,02,00,16.90
2013,07,15,02,01,16.90
2013,07,15,02,02,16.90
2013,07,15,02,03,16.90
2013,07,15,02,04,16.90
2013,07,15,02,05,16.90
2013,07,15,02,06,16.90
2013,07,15,02,07,16.90
2013,07,15,02,08,16.90
2013,07,15,02,09,16.90
2013,07,15,02,10,16.90
2013,07,15,02,11,16.90
2013,07,15,02,12,16.90
2013,07,15,02,13,16.90
2013,07,15,02,14,16.80
2013,07,15,02,15,16.80
2013,07,15,02,16,16.80
2013,07,15,02,17,16.80
2013,07,15,02,18,16.80
2013,07,15,02,19,16.70
2013,07,15,02,20,16.70
2013,07,15,02,21,16.60
2013,07,15,02,22,16.60
2013,07,15,02,23,16.50
2013,07,15,02,24,16.50
2013,07,15,02,25,16.40
2013,07,15,02,26,16.30
2013,07,15,02,27,16.30
2013,07,15,02,28,16.20
2013,07,15,02,29,16.20
2013,07,15,02,30,16.20
2013,07,15,02,31,16.10
2013,07,15,02,32,16.10
2013,07,15,02,33,16.10
2013,07,15,02,34,16.00
2013,07,15,02,35,16.00
2013,07,15,02,36,16.00
2013,07,15,02,37,15.90
2013,07,15,02,38,15.90
2013,07,15,02,39,15.90
2013,07,15,02,40,15.90
2013,07,15,02,41,15.90
2013,07,15,02,42,15.90
2013,07,15,02,43,15.80
2013,07,15,02,44,15.80
2013,07,15,02,45,15.80
2013,07,15,02,46,15.80
2013,07,15,02,47,15.80
2013,07,15,02,48,15.80
2013,07,15,02,49,15.80
2013,07,15,02,50,15.70
2013,07,15,02,51,15.70
2013,07,15,02,52,15.70
2013,07,15,02,53,15.70
2013,07,15,02,54,15.70
2013,07,15,02,55,15.70
2013,07,15,02,56,15.60
2013,07,15,02,57,15.60
2013,07,15,02,58,15.60
2013,07,15,02,59,15.60
2013,07,15,03,00,15.60
2013,07,15,03,01,15.50
2013,07,15,03,02,15.50
2013,07,15,03,03,15.50
2013,07,15,03,04,15.50
2013,07,15,03,05,15.50
2013,07,15,03,06,15.40
2013,07,15,03,07,15.40
2013,07,15,03,08,15.40
2013,07,15,03,09,15.40
2013,07,15,03,10,15.30
2013,07,15,03,11,15.30
2013,07,15,03,12,15.30
2013,07,15,03,13,15.30
2013,07,15,03,14,15.20
2013,07,15,03,15,15.20
2013,07,15,03,16,15.20
2013,07,15,03,17,15.20
2013,07,15,03,18,15.20
2013,07,15,03,19,15.20
2013,07,15,03,20,15.20
2013,07,15,03,21,15.20
2013,07,15,03,22,15.20
2013,07,15,03,23,15.20
2013,07,15,03,24,15.20
2013,07,15,03,25,15.20
2013,07,15,03,26,15.20
2013,07,15,03,27,15.20
2013,07,15,03,28,15.30
2013,07,15,03,29,15.30
2013,07,15,03,30,15.30
2013,07,15,03,31,15.30
2013,07,15,03,32,15.30
2013,07,15,03,33,15.30
2013,07,15,03,34,15.30
2013,07,15,03,35,15.30
2013,07,15,03,36,15.40
2013,07,15,03,37,15.40
2013,07,15,03,38,15.40
2013,07,15,03,39,15.40
2013,07,15,03,40,15.40
2013,07,15,03,41,15.40
2013,07,15,03,42,15.40
2013,07,15,03,43,15.40
2013,07,15,03,44,15.30
2013,07,15,03,45,15.30
2013,07,15,03,46,15.30
2013,07,15,03,47,15.20
2013,07,15,03,48,15.20
2013,07,15,03,49,15.20
2013,07,15,03,50,15.20
2013,07,15,03,51,15.20
2013,07,15,03,52,15.20
2013,07,15,03,53,15.10
2013,07,15,03,54,15.10
2013,07,15,03,55,15.10
2013,07,15,03,56,15.00
2013,07,15,03,57,15.00
2013,07,15,03,58,14.90
2013,07,15,03,59,14.80
2013,07,15,04,00,14.70
2013,07,15,04,01,14.60
2013,07,15,04,02,14.50
2013,07,15,04,03,14.40
2013,07,15,04,04,14.40
2013,07,15,04,05,14.30
2013,07,15,04,06,14.30
2013,07,15,04,07,14.30
2013,07,15,04,08,14.30
2013,07,15,04,09,14.30
2013,07,15,04,10,14.20
2013,07,15,04,11,14.20
2013,07,15,04,12,14.20
2013,07,15,04,13,14.20
2013,07,15,04,14,14.20
2013,07,15,04,15,14.20
2013,07,15,04,16,14.20
2013,07,15,04,17,14.20
2013,07,15,04,18,14.20
2013,07,15,04,19,14.20
2013,07,15,04,20,14.20
2013,07,15,04,21,14.20
2013,07,15,04,22,14.30
2013,07,15,04,23,14.40
2013,07,15,04,24,14.50
2013,07,15,04,25,14.50
2013,07,15,04,26,14.60
2013,07,15,04,27,14.70
2013,07,15,04,28,14.70
2013,07,15,04,29,14.70
2013,07,15,04,30,14.70
2013,07,15,04,31,14.70
2013,07,15,04,32,14.70
2013,07,15,04,33,14.80
2013,07,15,04,34,14.80
2013,07,15,04,35,14.70
2013,07,15,04,36,14.70
2013,07,15,04,37,14.70
2013,07,15,04,38,14.70
2013,07,15,04,39,14.70
2013,07,15,04,40,14.70
2013,07,15,04,41,14.70
2013,07,15,04,42,14.70
2013,07,15,04,43,14.70
2013,07,15,04,44,14.70
2013,07,15,04,45,14.70
2013,07,15,04,46,14.70
2013,07,15,04,47,14.70
2013,07,15,04,48,14.70
2013,07,15,04,49,14.70
2013,07,15,04,50,14.70
2013,07,15,04,51,14.70
2013,07,15,04,52,14.70
2013,07,15,04,53,14.70
2013,07,15,04,54,14.70
2013,07,15,04,55,14.60
2013,07,15,04,56,14.60
2013,07,15,04,57,14.60
2013,07,15,04,58,14.60
2013,07,15,04,59,14.60
2013,07,15,05,00,14.60
2013,07,15,05,01,14.60
2013,07,15,05,02,14.60
2013,07,15,05,03,14.60
2013,07,15,05,04,14.60
2013,07,15,05,05,14.60
2013,07,15,05,06,14.60
2013,07,15,05,07,14.60
2013,07,15,05,08,14.60
2013,07,15,05,09,14.60
2013,07,15,05,10,14.60
2013,07,15,05,11,14.60
2013,07,15,05,12,14.60
2013,07,15,05,13,14.60
2013,07,15,05,14,14.60
2013,07,15,05,15,14.60
2013,07,15,05,16,14.60
2013,07,15,05,17,14.60
2013,07,15,05,18,14.60
2013,07,15,05,19,14.60
2013,07,15,05,20,14.60
2013,07,15,05,21,14.60
2013,07,15,05,22,14.50
2013,07,15,05,23,14.50
2013,07,15,05,24,14.40
2013,07,15,05,25,14.40
2013,07,15,05,26,14.40
2013,07,15,05,27,14.40
2013,07,15,05,28,14.40
2013,07,15,05,29,14.40
2013,07,15,05,30,14.40
2013,07,15,05,31,14.40
2013,07,15,05,32,14.50
2013,07,15,05,33,14.50
2013,07,15,05,34,14.50
2013,07,15,05,35,14.50
2013,07,15,05,36,14.50
2013,07,15,05,37,14.60
2013,07,15,05,38,14.60
2013,07,15,05,39,14.60
2013,07,15,05,40,14.60
2013,07,15,05,41,14.60
2013,07,15,05,42,14.60
2013,07,15,05,43,14.60
2013,07,15,05,44,14.60
2013,07,15,05,45,14.60
2013,07,15,05,46,14.60
2013,07,15,05,47,14.60
2013,07,15,05,48,14.60
2013,07,15,05,49,14.60
2013,07,15,05,50,14.60
2013,07,15,05,51,14.50
2013,07,15,05,52,14.50
2013,07,15,05,53,14.40
2013,07,15,05,54,14.40
2013,07,15,05,55,14.30
2013,07,15,05,56,14.30
2013,07,15,05,57,14.30
2013,07,15,05,58,14.30
2013,07,15,05,59,14.30
2013,07,15,06,00,14.30
2013,07,15,06,01,14.30
2013,07,15,06,02,14.30
2013,07,15,06,03,14.30
2013,07,15,06,04,14.30
2013,07,15,06,05,14.30
2013,07,15,06,06,14.30
2013,07,15,06,07,14.40
2013,07,15,06,08,14.40
2013,07,15,06,09,14.40
2013,07,15,06,10,14.40
2013,07,15,06,11,14.40
2013,07,15,06,12,14.50
2013,07,15,06,13,14.50
2013,07,15,06,14,14.50
2013,07,15,06,15,14.50
2013,07,15,06,16,14.50
2013,07,15,06,17,14.50
2013,07,15,06,18,14.50
2013,07,15,06,19,14.50
2013,07,15,06,20,14.50
2013,07,15,06,21,14.50
2013,07,15,06,22,14.50
2013,07,15,06,23,14.60
2013,07,15,06,24,14.60
2013,07,15,06,25,14.60
2013,07,15,06,26,14.70
2013,07,15,06,27,14.70
2013,07,15,06,28,14.70
2013,07,15,06,29,14.70
2013,07,15,06,30,14.80
2013,07,15,06,31,14.80
2013,07,15,06,32,14.80
2013,07,15,06,33,14.80
2013,07,15,06,34,14.80
2013,07,15,06,35,14.80
2013,07,15,06,36,14.90
2013,07,15,06,37,14.90
2013,07,15,06,38,14.90
2013,07,15,06,39,14.90
2013,07,15,06,40,15.00
2013,07,15,06,41,15.00
2013,07,15,06,42,15.00
2013,07,15,06,43,15.10
2013,07,15,06,44,15.10
2013,07,15,06,45,15.10
2013,07,15,06,46,15.20
2013,07,15,06,47,15.20
2013,07,15,06,48,15.20
2013,07,15,06,49,15.20
2013,07,15,06,50,15.30
2013,07,15,06,51,15.30
2013,07,15,06,52,15.40
2013,07,15,06,53,15.40
2013,07,15,06,54,15.40
2013,07,15,06,55,15.50
2013,07,15,06,56,15.50
2013,07,15,06,57,15.60
2013,07,15,06,58,15.60
2013,07,15,06,59,15.60
2013,07,15,07,00,15.70
2013,07,15,07,01,15.70
2013,07,15,07,02,15.70
2013,07,15,07,03,15.80
2013,07,15,07,04,15.80
2013,07,15,07,05,15.80
2013,07,15,07,06,15.80
2013,07,15,07,07,15.90
2013,07,15,07,08,15.90
2013,07,15,07,09,15.90
2013,07,15,07,10,15.90
2013,07,15,07,11,15.90
2013,07,15,07,12,15.90
2013,07,15,07,13,16.00
2013,07,15,07,14,16.00
2013,07,15,07,15,16.00
2013,07,15,07,16,16.00
2013,07,15,07,17,16.10
2013,07,15,07,18,16.10
2013,07,15,07,19,16.10
2013,07,15,07,20,16.10
2013,07,15,07,21,16.10
2013,07,15,07,22,16.20
2013,07,15,07,23,16.20
2013,07,15,07,24,16.20
2013,07,15,07,25,16.20
2013,07,15,07,26,16.30
2013,07,15,07,27,16.30
2013,07,15,07,28,16.30
2013,07,15,07,29,16.40
2013,07,15,07,30,16.40
2013,07,15,07,31,16.40
2013,07,15,07,32,16.50
2013,07,15,07,33,16.50
2013,07,15,07,34,16.50
2013,07,15,07,35,16.60
2013,07,15,07,36,16.60
2013,07,15,07,37,16.60
2013,07,15,07,38,16.60
2013,07,15,07,39,16.60
2013,07,15,07,40,16.60
2013,07,15,07,41,16.60
2013,07,15,07,42,16.60
2013,07,15,07,43,16.70
2013,07,15,07,44,16.70
2013,07,15,07,45,16.70
2013,07,15,07,46,16.70
2013,07,15,07,47,16.70
2013,07,15,07,48,16.70
2013,07,15,07,49,16.70
2013,07,15,07,50,16.70
2013,07,15,07,51,16.70
2013,07,15,07,52,16.70
2013,07,15,07,53,16.80
2013,07,15,07,54,16.80
2013,07,15,07,55,16.80
2013,07,15,07,56,16.80
2013,07,15,07,57,16.80
2013,07,15,07,58,16.90
2013,07,15,07,59,16.90
2013,07,15,08,00,16.90
2013,07,15,08,01,16.90
2013,07,15,08,02,16.90
2013,07,15,08,03,17.00
2013,07,15,08,04,17.00
2013,07,15,08,05,17.10
2013,07,15,08,06,17.10
2013,07,15,08,07,17.10
2013,07,15,08,08,17.20
2013,07,15,08,09,17.20
2013,07,15,08,10,17.30
2013,07,15,08,11,17.30
2013,07,15,08,12,17.30
2013,07,15,08,13,17.40
2013,07,15,08,14,17.40
2013,07,15,08,15,17.50
2013,07,15,08,16,17.50
2013,07,15,08,17,17.60
2013,07,15,08,18,17.60
2013,07,15,08,19,17.60
2013,07,15,08,20,17.70
2013,07,15,08,21,17.70
2013,07,15,08,22,17.70
2013,07,15,08,23,17.80
2013,07,15,08,24,17.80
2013,07,15,08,25,17.80
2013,07,15,08,26,17.80
2013,07,15,08,27,17.80
2013,07,15,08,28,17.80
2013,07,15,08,29,17.90
2013,07,15,08,30,17.90
2013,07,15,08,31,17.90
2013,07,15,08,32,17.90
2013,07,15,08,33,18.00
2013,07,15,08,34,18.00
2013,07,15,08,35,18.00
2013,07,15,08,36,18.10
2013,07,15,08,37,18.10
2013,07,15,08,38,18.10
2013,07,15,08,39,18.20
2013,07,15,08,40,18.20
2013,07,15,08,41,18.30
2013,07,15,08,42,18.30
2013,07,15,08,43,18.40
2013,07,15,08,44,18.40
2013,07,15,08,45,18.50
2013,07,15,08,46,18.60
2013,07,15,08,47,18.60
2013,07,15,08,48,18.70
2013,07,15,08,49,18.70
2013,07,15,08,50,18.80
2013,07,15,08,51,18.80
2013,07,15,08,52,18.90
2013,07,15,08,53,18.90
2013,07,15,08,54,18.90
2013,07,15,08,55,19.00
2013,07,15,08,56,19.00
2013,07,15,08,57,19.00
2013,07,15,08,58,19.00
2013,07,15,08,59,19.10
2013,07,15,09,00,19.10
2013,07,15,09,01,19.10
2013,07,15,09,02,19.10
2013,07,15,09,03,19.20
2013,07,15,09,04,19.20
2013,07,15,09,05,19.20
2013,07,15,09,06,19.20
2013,07,15,09,07,19.20
2013,07,15,09,08,19.30
2013,07,15,09,09,19.30
2013,07,15,09,10,19.30
2013,07,15,09,11,19.40
2013,07,15,09,12,19.40
2013,07,15,09,13,19.50
2013,07,15,09,14,19.60
2013,07,15,09,15,19.60
2013,07,15,09,16,19.70
2013,07,15,09,17,19.70
2013,07,15,09,18,19.70
2013,07,15,09,19,19.70
2013,07,15,09,20,19.70
2013,07,15,09,21,19.70
2013,07,15,09,22,19.70
2013,07,15,09,23,19.70
2013,07,15,09,24,19.70
2013,07,15,09,25,19.70
2013,07,15,09,26,19.70
2013,07,15,09,27,19.70
2013,07,15,09,28,19.70
2013,07,15,09,29,19.70
2013,07,15,09,30,19.70
2013,07,15,09,31,19.70
2013,07,15,09,32,19.70
2013,07,15,09,33,19.80
2013,07,15,09,34,19.80
2013,07,15,09,35,19.90
2013,07,15,09,36,19.90
2013,07,15,09,37,19.90
2013,07,15,09,38,20.00
2013,07,15,09,39,20.00
2013,07,15,09,40,20.00
2013,07,15,09,41,20.00
2013,07,15,09,42,20.10
2013,07,15,09,43,20.10
2013,07,15,09,44,20.10
2013,07,15,09,45,20.10
2013,07,15,09,46,20.20
2013,07,15,09,47,20.20
2013,07,15,09,48,20.20
2013,07,15,09,49,20.30
2013,07,15,09,50,20.30
2013,07,15,09,51,20.40
2013,07,15,09,52,20.40
2013,07,15,09,53,20.50
2013,07,15,09,54,20.60
2013,07,15,09,55,20.60
2013,07,15,09,56,20.60
2013,07,15,09,57,20.60
2013,07,15,09,58,20.70
2013,07,15,09,59,20.70
2013,07,15,10,00,20.70
2013,07,15,10,01,20.80
2013,07,15,10,02,20.80
2013,07,15,10,03,20.80
2013,07,15,10,04,20.80
2013,07,15,10,05,20.80
2013,07,15,10,06,20.90
2013,07,15,10,07,20.90
2013,07,15,10,08,20.90
2013,07,15,10,09,20.90
2013,07,15,10,10,21.00
2013,07,15,10,11,21.00
2013,07,15,10,12,21.10
2013,07,15,10,13,21.10
2013,07,15,10,14,21.10
2013,07,15,10,15,21.20
2013,07,15,10,16,21.20
2013,07,15,10,17,21.20
2013,07,15,10,18,21.30
2013,07,15,10,19,21.30
2013,07,15,10,20,21.30
2013,07,15,10,21,21.30
2013,07,15,10,22,21.30
2013,07,15,10,23,21.40
2013,07,15,10,24,21.40
2013,07,15,10,25,21.40
2013,07,15,10,26,21.50
2013,07,15,10,27,21.60
2013,07,15,10,28,21.70
2013,07,15,10,29,21.70
2013,07,15,10,30,21.70
2013,07,15,10,31,21.80
2013,07,15,10,32,21.80
2013,07,15,10,33,21.80
2013,07,15,10,34,21.80
2013,07,15,10,35,21.90
2013,07,15,10,36,21.90
2013,07,15,10,37,22.00
2013,07,15,10,38,22.10
2013,07,15,10,39,22.10
2013,07,15,10,40,22.20
2013,07,15,10,41,22.20
2013,07,15,10,42,22.30
2013,07,15,10,43,22.30
2013,07,15,10,44,22.40
2013,07,15,10,45,22.50
2013,07,15,10,46,22.50
2013,07,15,10,47,22.60
2013,07,15,10,48,22.60
2013,07,15,10,49,22.60
2013,07,15,10,50,22.60
2013,07,15,10,51,22.60
2013,07,15,10,52,22.60
2013,07,15,10,53,22.60
2013,07,15,10,54,22.60
2013,07,15,10,55,22.60
2013,07,15,10,56,22.50
2013,07,15,10,57,22.50
2013,07,15,10,58,22.50
2013,07,15,10,59,22.40
2013,07,15,11,00,22.40
2013,07,15,11,01,22.40
2013,07,15,11,02,22.30
2013,07,15,11,03,22.30
2013,07,15,11,04,22.40
2013,07,15,11,05,22.40
2013,07,15,11,06,22.50
2013,07,15,11,07,22.50
2013,07,15,11,08,22.60
2013,07,15,11,09,22.60
2013,07,15,11,10,22.60
2013,07,15,11,11,22.60
2013,07,15,11,12,22.70
2013,07,15,11,13,22.70
2013,07,15,11,14,22.70
2013,07,15,11,15,22.70
2013,07,15,11,16,22.80
2013,07,15,11,17,22.80
2013,07,15,11,18,22.80
2013,07,15,11,19,22.80
2013,07,15,11,20,22.80
2013,07,15,11,21,22.80
2013,07,15,11,22,22.70
2013,07,15,11,23,22.70
2013,07,15,11,24,22.80
2013,07,15,11,25,22.90
2013,07,15,11,26,22.90
2013,07,15,11,27,23.00
2013,07,15,11,28,23.10
2013,07,15,11,29,23.20
2013,07,15,11,30,23.30
2013,07,15,11,31,23.30
2013,07,15,11,32,23.40
2013,07,15,11,33,23.50
2013,07,15,11,34,23.60
2013,07,15,11,35,23.70
2013,07,15,11,36,23.70
2013,07,15,11,37,23.80
2013,07,15,11,38,23.80
2013,07,15,11,39,23.90
2013,07,15,11,40,23.90
2013,07,15,11,41,24.00
2013,07,15,11,42,24.00
2013,07,15,11,43,24.10
2013,07,15,11,44,24.00
2013,07,15,11,45,24.00
2013,07,15,11,46,24.00
2013,07,15,11,47,23.90
2013,07,15,11,48,23.80
2013,07,15,11,49,23.80
2013,07,15,11,50,23.80
2013,07,15,11,51,23.80
2013,07,15,11,52,23.80
2013,07,15,11,53,23.90
2013,07,15,11,54,23.90
2013,07,15,11,55,23.90
2013,07,15,11,56,23.90
2013,07,15,11,57,24.00
2013,07,15,11,58,24.00
2013,07,15,11,59,24.10
2013,07,15,12,00,24.10
2013,07,15,12,01,24.20
2013,07,15,12,02,24.20
2013,07,15,12,03,24.30
2013,07,15,12,04,24.30
2013,07,15,12,05,24.40
2013,07,15,12,06,24.40
2013,07,15,12,07,24.40
2013,07,15,12,08,24.30
2013,07,15,12,09,24.30
2013,07,15,12,10,24.30
2013,07,15,12,11,24.30
2013,07,15,12,12,24.30
2013,07,15,12,13,24.30
2013,07,15,12,14,24.30
2013,07,15,12,15,24.40
2013,07,15,12,16,24.40
2013,07,15,12,17,24.40
2013,07,15,12,18,24.50
2013,07,15,12,19,24.60
2013,07,15,12,20,24.60
2013,07,15,12,21,24.60
2013,07,15,12,22,24.60
2013,07,15,12,23,24.70
2013,07,15,12,24,24.70
2013,07,15,12,25,24.60
2013,07,15,12,26,24.50
2013,07,15,12,27,24.50
2013,07,15,12,28,24.40
2013,07,15,12,29,24.30
2013,07,15,12,30,24.30
2013,07,15,12,31,24.30
2013,07,15,12,32,24.30
2013,07,15,12,33,24.30
2013,07,15,12,34,24.30
2013,07,15,12,35,24.30
2013,07,15,12,36,24.30
2013,07,15,12,37,24.30
2013,07,15,12,38,24.30
2013,07,15,12,39,24.30
2013,07,15,12,40,24.20
2013,07,15,12,41,24.20
2013,07,15,12,42,24.30
2013,07,15,12,43,24.30
2013,07,15,12,44,24.20
2013,07,15,12,45,24.20
2013,07,15,12,46,24.10
2013,07,15,12,47,24.10
2013,07,15,12,48,24.10
2013,07,15,12,49,24.10
2013,07,15,12,50,24.10
2013,07,15,12,51,24.00
2013,07,15,12,52,24.00
2013,07,15,12,53,24.00
2013,07,15,12,54,23.90
2013,07,15,12,55,23.90
2013,07,15,12,56,24.00
2013,07,15,12,57,24.00
2013,07,15,12,58,24.00
2013,07,15,12,59,24.10
2013,07,15,13,00,24.20
2013,07,15,13,01,24.20
2013,07,15,13,02,24.20
2013,07,15,13,03,24.10
2013,07,15,13,04,24.00
2013,07,15,13,05,24.00
2013,07,15,13,06,24.00
2013,07,15,13,07,23.90
2013,07,15,13,08,23.90
2013,07,15,13,09,23.90
2013,07,15,13,10,23.90
2013,07,15,13,11,23.90
2013,07,15,13,12,24.00
2013,07,15,13,13,24.00
2013,07,15,13,14,24.10
2013,07,15,13,15,24.20
2013,07,15,13,16,24.20
2013,07,15,13,17,24.30
2013,07,15,13,18,24.30
2013,07,15,13,19,24.30
2013,07,15,13,20,24.30
2013,07,15,13,21,24.30
2013,07,15,13,22,24.20
2013,07,15,13,23,24.20
2013,07,15,13,24,24.20
2013,07,15,13,25,24.20
2013,07,15,13,26,24.30
2013,07,15,13,27,24.30
2013,07,15,13,28,24.30
2013,07,15,13,29,24.30
2013,07,15,13,30,24.30
2013,07,15,13,31,24.30
2013,07,15,13,32,24.40
2013,07,15,13,33,24.40
2013,07,15,13,34,24.50
2013,07,15,13,35,24.60
2013,07,15,13,36,24.60
2013,07,15,13,37,24.70
2013,07,15,13,38,24.80
2013,07,15,13,39,24.80
2013,07,15,13,40,24.90
2013,07,15,13,41,24.90
2013,07,15,13,42,24.90
2013,07,15,13,43,24.90
2013,07,15,13,44,24.90
2013,07,15,13,45,24.90
2013,07,15,13,46,24.90
2013,07,15,13,47,24.90
2013,07,15,13,48,24.90
2013,07,15,13,49,24.90
2013,07,15,13,50,24.90
2013,07,15,13,51,24.90
2013,07,15,13,52,24.90
2013,07,15,13,53,24.90
2013,07,15,13,54,24.90
2013,07,15,13,55,24.90
2013,07,15,13,56,24.90
2013,07,15,13,57,24.80
2013,07,15,13,58,24.80
2013,07,15,13,59,24.70
2013,07,15,14,00,24.60
2013,07,15,14,01,24.60
2013,07,15,14,02,24.70
2013,07,15,14,03,24.70
2013,07,15,14,04,24.80
2013,07,15,14,05,24.80
2013,07,15,14,06,24.80
2013,07,15,14,07,24.90
2013,07,15,14,08,24.90
2013,07,15,14,09,24.90
2013,07,15,14,10,24.90
2013,07,15,14,11,25.00
2013,07,15,14,12,25.00
2013,07,15,14,13,25.10
2013,07,15,14,14,25.20
2013,07,15,14,15,25.30
2013,07,15,14,16,25.30
2013,07,15,14,17,25.40
2013,07,15,14,18,25.40
2013,07,15,14,19,25.40
2013,07,15,14,20,25.40
2013,07,15,14,21,25.30
2013,07,15,14,22,25.30
2013,07,15,14,23,25.30
2013,07,15,14,24,25.40
2013,07,15,14,25,25.40
2013,07,15,14,26,25.50
2013,07,15,14,27,25.50
2013,07,15,14,28,25.50
2013,07,15,14,29,25.50
2013,07,15,14,30,25.50
2013,07,15,14,31,25.50
2013,07,15,14,32,25.50
2013,07,15,14,33,25.50
2013,07,15,14,34,25.50
2013,07,15,14,35,25.60
2013,07,15,14,36,25.60
2013,07,15,14,37,25.70
2013,07,15,14,38,25.70
2013,07,15,14,39,25.80
2013,07,15,14,40,25.80
2013,07,15,14,41,25.80
2013,07,15,14,42,25.80
2013,07,15,14,43,25.80
2013,07,15,14,44,25.80
2013,07,15,14,45,25.80
2013,07,15,14,46,25.90
2013,07,15,14,47,25.90
2013,07,15,14,48,25.90
2013,07,15,14,49,25.90
2013,07,15,14,50,26.00
2013,07,15,14,51,26.00
2013,07,15,14,52,26.00
2013,07,15,14,53,26.00
2013,07,15,14,54,26.00
2013,07,15,14,55,26.00
2013,07,15,14,56,26.10
2013,07,15,14,57,26.10
2013,07,15,14,58,26.10
2013,07,15,14,59,26.10
2013,07,15,15,00,26.10
2013,07,15,15,01,26.10
2013,07,15,15,02,26.10
2013,07,15,15,03,26.10
2013,07,15,15,04,26.20
2013,07,15,15,05,26.30
2013,07,15,15,06,26.30
2013,07,15,15,07,26.30
2013,07,15,15,08,26.30
2013,07,15,15,09,26.30
2013,07,15,15,10,26.30
2013,07,15,15,11,26.30
2013,07,15,15,12,26.40
2013,07,15,15,13,26.50
2013,07,15,15,14,26.50
2013,07,15,15,15,26.60
2013,07,15,15,16,26.70
2013,07,15,15,17,26.80
2013,07,15,15,18,26.90
2013,07,15,15,19,26.90
2013,07,15,15,20,26.90
2013,07,15,15,21,26.90
2013,07,15,15,22,26.80
2013,07,15,15,23,26.80
2013,07,15,15,24,26.70
2013,07,15,15,25,26.70
2013,07,15,15,26,26.80
2013,07,15,15,27,26.70
2013,07,15,15,28,26.70
2013,07,15,15,29,26.70
2013,07,15,15,30,26.70
2013,07,15,15,31,26.70
2013,07,15,15,32,26.70
2013,07,15,15,33,26.80
2013,07,15,15,34,26.80
2013,07,15,15,35,26.80
2013,07,15,15,36,26.80
2013,07,15,15,37,26.90
2013,07,15,15,38,26.90
2013,07,15,15,39,26.90
2013,07,15,15,40,27.00
2013,07,15,15,41,27.00
2013,07,15,15,42,27.00
2013,07,15,15,43,27.00
2013,07,15,15,44,26.90
2013,07,15,15,45,26.90
2013,07,15,15,46,26.90
2013,07,15,15,47,26.90
2013,07,15,15,48,26.90
2013,07,15,15,49,26.90
2013,07,15,15,50,26.80
2013,07,15,15,51,26.80
2013,07,15,15,52,26.70
2013,07,15,15,53,26.80
2013,07,15,15,54,26.80
2013,07,15,15,55,26.90
2013,07,15,15,56,27.00
2013,07,15,15,57,27.10
2013,07,15,15,58,27.20
2013,07,15,15,59,27.20
2013,07,15,16,00,27.10
2013,07,15,16,01,27.10
2013,07,15,16,02,27.00
2013,07,15,16,03,26.90
2013,07,15,16,04,27.00
2013,07,15,16,05,27.00
2013,07,15,16,06,27.00
2013,07,15,16,07,27.10
2013,07,15,16,08,27.10
2013,07,15,16,09,27.10
2013,07,15,16,10,27.10
2013,07,15,16,11,27.10
2013,07,15,16,12,27.00
2013,07,15,16,13,27.00
2013,07,15,16,14,27.00
2013,07,15,16,15,27.00
2013,07,15,16,16,27.00
2013,07,15,16,17,27.10
2013,07,15,16,18,27.20
2013,07,15,16,19,27.20
2013,07,15,16,20,27.20
2013,07,15,16,21,27.30
2013,07,15,16,22,27.30
2013,07,15,16,23,27.30
2013,07,15,16,24,27.40
2013,07,15,16,25,27.30
2013,07,15,16,26,27.30
2013,07,15,16,27,27.30
2013,07,15,16,28,27.30
2013,07,15,16,29,27.40
2013,07,15,16,30,27.40
2013,07,15,16,31,27.50
2013,07,15,16,32,27.60
2013,07,15,16,33,27.60
2013,07,15,16,34,27.60
2013,07,15,16,35,27.60
2013,07,15,16,36,27.50
2013,07,15,16,37,27.50
2013,07,15,16,38,27.40
2013,07,15,16,39,27.50
2013,07,15,16,40,27.50
2013,07,15,16,41,27.60
2013,07,15,16,42,27.60
2013,07,15,16,43,27.60
2013,07,15,16,44,27.70
2013,07,15,16,45,27.70
2013,07,15,16,46,27.60
2013,07,15,16,47,27.60
2013,07,15,16,48,27.60
2013,07,15,16,49,27.50
2013,07,15,16,50,27.50
2013,07,15,16,51,27.40
2013,07,15,16,52,27.50
2013,07,15,16,53,27.50
2013,07,15,16,54,27.60
2013,07,15,16,55,27.70
2013,07,15,16,56,27.80
2013,07,15,16,57,27.80
2013,07,15,16,58,27.90
2013,07,15,16,59,27.90
2013,07,15,17,00,27.90
2013,07,15,17,01,27.90
2013,07,15,17,02,28.00
2013,07,15,17,03,28.10
2013,07,15,17,04,28.10
2013,07,15,17,05,28.20
2013,07,15,17,06,28.20
2013,07,15,17,07,28.10
2013,07,15,17,08,28.00
2013,07,15,17,09,27.90
2013,07,15,17,10,27.80
2013,07,15,17,11,27.70
2013,07,15,17,12,27.70
2013,07,15,17,13,27.80
2013,07,15,17,14,27.80
2013,07,15,17,15,27.70
2013,07,15,17,16,27.70
2013,07,15,17,17,27.70
2013,07,15,17,18,27.70
2013,07,15,17,19,27.70